Total_Precipitation_Accumulation
1.83 1.79 1.70 1.73 1.69 1.87 2.06 2.33 2.27 2.51 2.47 2.20 1.86 1.66 1.65 1.61 1.51 1.70 1.96 2.02 1.86 1.89 2.54 2.94 2.80 2.51 2.12 1.73 1.49 1.40 1.29 1.11 0.95 0.74 0.65 0.68 0.71 0.72 0.63 0.47 0.39 0.32 0.25
2.31 2.23 2.03 2.00 1.89 1.96 2.24 2.49 2.51 2.89 2.74 2.59 2.11 1.95 1.79 1.67 1.62 1.77 1.96 2.19 2.14 2.11 2.40 2.82 3.03 2.95 2.61 2.10 1.71 1.48 1.39 1.32 1.19 0.89 0.72 0.70 0.75 0.79 0.73 0.61 0.48 0.37 0.29
2.45 2.32 2.17 2.08 2.20 2.34 2.51 2.55 2.65 2.95 2.68 2.56 2.34 2.17 1.95 1.74 1.65 1.83 2.05 2.34 2.16 2.08 2.34 2.66 2.99 2.94 2.77 2.50 2.09 1.80 1.60 1.47 1.39 1.12 0.84 0.72 0.70 0.74 0.74 0.70 0.58 0.42 0.28
2.45 2.51 2.27 2.09 2.36 2.51 2.68 2.81 2.78 2.84 2.82 2.75 2.57 2.23 2.04 1.89 1.70 1.77 1.87 2.01 2.13 1.78 2.10 2.58 2.73 2.61 2.62 2.72 2.66 2.51 2.20 1.84 1.65 1.36 1.04 0.86 0.78 0.76 0.75 0.73 0.63 0.44 0.27
2.39 2.64 2.43 2.40 2.58 2.78 2.68 2.51 2.83 2.94 2.85 2.82 2.53 2.33 1.95 1.77 1.70 1.63 1.72 1.80 1.96 1.89 1.83 1.99 2.39 2.33 2.52 2.83 3.01 3.08 2.89 2.52 2.11 1.76 1.42 1.17 1.06 0.92 0.78 0.73 0.66 0.46 0.30
2.35 2.61 2.40 2.45 2.67 2.83 2.87 2.86 2.91 2.89 2.75 2.81 2.50 2.25 1.92 1.58 1.50 1.45 1.40 1.54 1.60 1.44 1.48 1.61 1.90 1.70 1.89 2.26 2.65 3.03 3.25 3.25 2.81 2.27 1.99 1.77 1.59 1.29 0.95 0.75 0.62 0.52 0.39
2.26 2.53 2.27 2.56 2.71 2.71 2.82 2.87 3.00 2.87 2.71 2.89 2.74 2.24 1.76 1.45 1.27 1.16 1.18 1.28 1.25 1.32 1.54 1.79 1.99 1.97 1.75 1.77 1.95 2.37 2.99 3.49 3.40 2.90 2.62 2.44 2.24 1.83 1.26 0.92 0.65 0.52 0.46
2.17 2.33 2.59 2.64 2.71 2.73 2.75 2.73 2.76 2.57 2.39 2.73 2.73 2.51 1.92 1.54 1.23 1.05 1.20 1.17 1.25 1.50 1.52 1.56 1.82 2.07 1.94 1.93 1.77 1.75 2.49 3.31 3.67 3.55 3.39 3.20 2.88 2.23 1.60 1.19 0.81 0.58 0.51
2.27 2.40 2.57 2.65 2.58 2.49 2.52 2.62 2.53 2.39 2.22 2.36 2.62 2.63 2.12 1.64 1.31 1.08 1.11 1.17 1.46 1.60 1.49 1.46 1.47 1.54 1.61 1.94 2.16 1.90 2.00 2.31 2.87 3.59 3.94 3.93 3.39 2.42 1.76 1.43 1.15 0.80 0.58
2.01 2.13 2.20 2.36 2.42 2.41 2.37 2.33 2.31 2.32 2.23 2.11 2.35 2.43 2.28 2.01 1.73 1.26 1.03 1.09 1.33 1.42 1.36 1.25 1.29 1.42 1.52 1.82 2.07 1.87 1.67 1.56 1.74 2.54 3.31 3.50 3.17 2.39 1.83 1.64 1.60 1.31 0.86
1.83 1.83 1.93 2.12 2.18 2.10 2.09 2.23 2.39 2.36 2.20 2.05 2.14 2.25 2.39 2.32 2.01 1.64 1.22 1.13 1.14 1.08 1.19 1.21 1.21 1.27 1.46 1.72 1.89 1.65 1.63 1.43 1.30 1.56 2.11 2.52 2.62 2.33 1.95 1.88 2.04 1.95 1.52
1.75 1.69 1.72 1.83 1.91 1.90 1.87 1.91 2.02 2.05 2.03 2.11 2.13 2.14 2.25 2.24 2.12 2.00 1.59 1.36 1.21 0.95 1.00 1.07 1.14 1.19 1.29 1.44 1.40 1.42 1.51 1.34 1.19 1.15 1.35 1.66 1.94 2.06 1.97 2.04 2.24 2.27 2.11
1.69 1.66 1.60 1.55 1.56 1.60 1.68 1.83 1.85 1.85 1.94 2.04 2.06 2.10 2.03 1.97 2.05 2.04 1.84 1.55 1.37 1.04 1.04 0.99 1.01 1.09 1.07 1.28 1.38 1.46 1.34 1.18 1.09 1.05 1.08 1.19 1.37 1.53 1.68 1.81 2.08 2.31 2.39
1.63 1.52 1.39 1.35 1.34 1.36 1.45 1.62 1.78 1.80 1.88 1.93 1.89 1.94 1.84 1.77 1.90 1.88 1.84 1.83 1.65 1.46 1.40 1.22 1.01 0.99 1.03 1.12 1.22 1.29 1.18 1.11 0.96 0.88 0.87 0.93 1.04 1.15 1.27 1.45 1.65 1.79 1.93
1.34 1.30 1.27 1.26 1.22 1.25 1.30 1.34 1.46 1.48 1.56 1.62 1.70 1.69 1.60 1.61 1.71 1.75 1.83 1.90 1.84 1.69 1.65 1.55 1.22 1.00 1.01 1.09 1.28 1.15 1.06 0.99 0.91 0.83 0.74 0.75 0.79 0.87 0.96 1.05 1.21 1.34 1.38
1.24 1.17 1.18 1.18 1.13 1.11 1.14 1.17 1.21 1.26 1.24 1.29 1.47 1.50 1.48 1.50 1.61 1.65 1.71 1.85 1.95 1.94 1.77 1.61 1.43 1.16 1.15 1.04 1.14 1.14 1.09 1.03 0.88 0.76 0.67 0.64 0.66 0.72 0.81 0.87 0.94 1.06 1.11
1.16 1.18 1.14 1.11 1.01 0.95 0.95 0.97 0.98 1.08 1.09 1.09 1.17 1.20 1.26 1.37 1.52 1.57 1.61 1.68 1.88 2.04 1.93 1.83 1.71 1.57 1.43 1.27 1.11 1.10 1.10 1.04 0.86 0.74 0.62 0.58 0.62 0.65 0.68 0.75 0.83 0.92 0.99
0.91 0.93 0.93 0.99 1.02 1.01 0.98 0.97 0.93 0.92 0.97 1.00 1.07 1.17 1.23 1.35 1.47 1.45 1.54 1.62 1.81 2.03 2.10 2.23 2.27 2.03 1.72 1.49 1.38 1.22 0.99 0.89 0.89 0.76 0.62 0.56 0.55 0.58 0.61 0.65 0.72 0.84 0.94
0.82 0.82 0.83 0.86 0.89 0.97 1.08 1.10 1.07 1.08 1.10 1.02 1.08 1.17 1.17 1.21 1.30 1.32 1.44 1.57 1.72 1.86 2.04 2.15 2.28 2.10 1.91 1.62 1.61 1.42 1.17 1.08 0.87 0.82 0.71 0.60 0.55 0.55 0.56 0.61 0.67 0.73 0.81
0.84 0.83 0.79 0.79 0.82 0.83 0.90 1.04 1.10 1.10 1.07 1.03 1.03 1.02 0.99 1.01 1.10 1.19 1.25 1.41 1.56 1.70 1.82 1.87 2.01 2.08 2.10 2.06 1.99 1.76 1.59 1.39 1.13 0.89 0.84 0.68 0.61 0.57 0.55 0.56 0.59 0.67 0.77
0.77 0.81 0.74 0.72 0.77 0.81 0.79 0.81 0.93 0.96 0.96 0.95 0.96 0.89 0.78 0.78 0.82 0.86 0.93 1.17 1.34 1.48 1.63 1.74 1.87 2.05 2.16 2.29 2.14 2.01 1.88 1.76 1.50 1.30 1.27 0.99 0.85 0.70 0.60 0.58 0.58 0.60 0.66
0.73 0.74 0.68 0.66 0.67 0.61 0.63 0.59 0.61 0.70 0.76 0.78 0.83 0.84 0.76 0.65 0.61 0.63 0.65 0.77 0.96 1.12 1.36 1.62 1.81 2.02 2.11 2.08 2.19 2.19 2.12 1.98 1.85 1.67 1.63 1.59 1.42 1.24 0.99 0.74 0.68 0.60 0.56
0.72 0.70 0.65 0.61 0.60 0.59 0.47 0.42 0.42 0.52 0.61 0.64 0.69 0.75 0.66 0.59 0.57 0.54 0.59 0.65 0.71 0.78 0.92 1.23 1.52 1.64 1.67 1.67 1.91 2.10 2.11 2.03 2.00 1.88 1.88 1.95 1.84 1.59 1.22 1.01 0.89 0.72 0.62
0.70 0.71 0.65 0.62 0.66 0.61 0.47 0.39 0.35 0.35 0.48 0.58 0.62 0.66 0.69 0.69 0.62 0.60 0.60 0.65 0.63 0.63 0.66 0.73 0.89 1.04 1.22 1.37 1.59 1.89 2.12 2.11 2.12 2.09 2.02 2.15 2.06 1.90 1.54 1.19 0.98 0.76 0.68
0.65 0.65 0.67 0.67 0.69 0.66 0.47 0.36 0.34 0.41 0.53 0.57 0.60 0.61 0.64 0.69 0.63 0.52 0.54 0.60 0.63 0.65 0.57 0.59 0.63 0.75 0.90 1.06 1.24 1.49 1.76 2.03 2.29 2.33 2.11 2.14 2.12 2.12 2.08 1.67 1.25 0.99 0.78
0.68 0.63 0.64 0.68 0.68 0.72 0.52 0.32 0.29 0.42 0.59 0.65 0.74 0.72 0.58 0.54 0.53 0.41 0.44 0.55 0.56 0.57 0.53 0.56 0.58 0.61 0.67 0.81 0.94 1.14 1.34 1.58 1.84 2.02 2.00 2.05 2.18 2.44 2.56 2.17 1.62 1.18 0.96